Retour au catalogue

THORAD AGENA D DEB

ActifLEO
NORAD 4659·DEBRIS·🇺🇸 United States

Lancé Apr 8, 1970 depuis Vandenberg Space Force Base

Loading…

Prochains Passages (prochaines 24 heures)

TLE

FraisSource: Space-Track

Époque: Sep 14, 2026, 06:46 UTC

1 04659U 70025AT  26257.28228370  .00001062  00000-0  84035-3 0  9994
2 04659 100.0972  28.4655 0010198  34.9880 325.1945 13.94126200821082

Suivez THORAD AGENA D DEB en temps réel avec AllMySat

Download on the App Store